TimeMDT,TemperatureF,Dew PointF,Humidity,Sea Level PressureIn,VisibilityMPH,Wind Direction,Wind SpeedMPH,Gust SpeedMPH,PrecipitationIn,Events,Conditions,WindDirDegrees,DateUTC
12:53 AM,25.0,19.9,81,30.16,10.0,ENE,4.6,-,N/A,,Overcast,60,2012-10-27 06:53:00
1:53 AM,25.0,19.9,81,30.15,10.0,ENE,3.5,-,N/A,,Overcast,70,2012-10-27 07:53:00
2:53 AM,25.0,21.0,85,30.14,3.0,Calm,Calm,-,0.00,Snow,Light Snow,0,2012-10-27 08:53:00
3:17 AM,24.8,21.2,86,30.13,2.5,Calm,Calm,-,0.00,Snow,Light Snow,0,2012-10-27 09:17:00
3:48 AM,24.8,21.2,86,30.13,1.5,Calm,Calm,-,0.00,Snow,Light Snow,0,2012-10-27 09:48:00
3:53 AM,24.1,21.0,88,30.15,1.2,Calm,Calm,-,0.00,Snow,Light Snow,0,2012-10-27 09:53:00
4:13 AM,24.8,21.2,86,30.13,2.0,Calm,Calm,-,0.00,Snow,Light Snow,0,2012-10-27 10:13:00
4:53 AM,24.1,21.9,91,30.16,2.5,Calm,Calm,-,0.00,Snow,Light Snow,0,2012-10-27 10:53:00
4:59 AM,24.8,21.2,86,30.13,3.0,Calm,Calm,-,0.00,Snow,Light Snow,0,2012-10-27 10:59:00
5:29 AM,24.8,21.2,86,30.13,2.0,Calm,Calm,-,0.00,Snow,Light Snow,0,2012-10-27 11:29:00
5:40 AM,24.8,21.2,86,30.13,4.0,WNW,3.5,-,0.00,Snow,Light Snow,290,2012-10-27 11:40:00
5:53 AM,23.0,21.0,92,30.17,8.0,West,4.6,-,0.00,Snow,Light Snow,260,2012-10-27 11:53:00
6:53 AM,19.0,17.1,92,30.19,10.0,Calm,Calm,-,0.00,,Scattered Clouds,0,2012-10-27 12:53:00
7:53 AM,17.1,15.1,92,30.21,10.0,East,4.6,-,N/A,,Scattered Clouds,80,2012-10-27 13:53:00
8:53 AM,23.0,21.2,93,30.13,10.0,Calm,Calm,-,N/A,,Overcast,0,2012-10-27 14:53:00
9:53 AM,27.0,23.0,85,30.19,10.0,East,4.6,-,N/A,,Overcast,80,2012-10-27 15:53:00
10:53 AM,30.9,24.1,76,30.19,10.0,East,3.5,-,N/A,,Partly Cloudy,100,2012-10-27 16:53:00
11:53 AM,35.1,23.0,61,30.14,10.0,Calm,Calm,-,N/A,,Clear,0,2012-10-27 17:53:00
12:53 PM,39.9,23.0,51,30.10,10.0,Variable,3.5,-,N/A,,Clear,0,2012-10-27 18:53:00
1:53 PM,43.0,17.1,35,30.07,10.0,NNW,12.7,19.6,N/A,,Clear,330,2012-10-27 19:53:00
2:53 PM,44.1,18.0,35,30.06,10.0,NNW,12.7,19.6,N/A,,Clear,340,2012-10-27 20:53:00
3:53 PM,43.0,19.0,38,30.07,10.0,NW,13.8,21.9,N/A,,Clear,310,2012-10-27 21:53:00
4:53 PM,39.9,19.9,45,30.10,10.0,NNW,6.9,-,N/A,,Clear,340,2012-10-27 22:53:00
5:53 PM,37.0,21.9,54,30.12,10.0,NNW,8.1,-,N/A,,Clear,340,2012-10-27 23:53:00
6:53 PM,34.0,23.0,64,30.17,10.0,WNW,3.5,-,N/A,,Overcast,300,2012-10-28 00:53:00
7:53 PM,35.1,24.1,64,30.19,10.0,Calm,Calm,-,N/A,,Overcast,0,2012-10-28 01:53:00
8:53 PM,33.1,25.0,72,30.17,10.0,NE,5.8,-,N/A,,Overcast,50,2012-10-28 02:53:00
9:53 PM,32.0,26.6,80,30.15,10.0,East,4.6,-,N/A,,Overcast,100,2012-10-28 03:53:00
10:53 PM,30.0,26.1,85,30.16,10.0,ENE,6.9,-,N/A,,Overcast,70,2012-10-28 04:53:00
11:53 PM,28.0,26.1,92,30.14,10.0,ENE,4.6,-,N/A,,Partly Cloudy,70,2012-10-28 05:53:00